No particular awareness of the weather is required.    There are no Weather-warnings


Meteo18 Weather Cam more information Meteo18 Weather Cam


Thunder radar more information blitzortung!


Rain radar more information rain snow radar


Visit our other weather sites:

Template documentation
and downloads

And another site



Weather Underground History page Text

Daily Summary for August 7, 2017 Units:  English    Metric   Both
« Previous Day
Next Day »
Daily Weekly Monthly Yearly Custom
  High: Low: Average:
Temperature: 81.3 °F 53.2 °F 68 °F
Dew Point: 58.3 °F 46.4 °F 49.8 °F
Humidity: 78 % 32 % 55 %
Wind Speed: 9 mph 0 mph 2.2 mph
Wind Gust: 14 mph - -
Wind:- - SE
Pressure: 30.2 in 29.9 in -
Precipitation: 0 in    
Historical Graphs
 
 
Tabular Data for August 7, 2017
Time Temperature Dew Point Pressure Wind Wind Speed Wind Gust Humidity Rainfall Rate (Hourly)
00:02 59.5 °F 47.8 °F 30.2 in NNE 1 mph 2 mph 65 % 0 in
00:07 59.5 °F 47.3 °F 30.2 in North 1 mph 2 mph 64 % 0 in
00:17 59.5 °F 47.3 °F 30.2 in Calm   2 mph 64 % 0 in
00:22 59.4 °F 47.1 °F 30.2 in Calm   1 mph 64 % 0 in
00:27 59.2 °F 46.9 °F 30.2 in Calm     64 % 0 in
00:32 59.5 °F 46.9 °F 30.2 in Calm   2 mph 63 % 0 in
00:37 59.5 °F 46.9 °F 30.2 in WNW 1 mph 2 mph 63 % 0 in
00:42 58.8 °F 46.6 °F 30.2 in NW 1 mph 2 mph 64 % 0 in
00:47 58.6 °F 46.9 °F 30.2 in WNW 1 mph 2 mph 65 % 0 in
00:52 58.3 °F 46.9 °F 30.2 in WNW 1 mph 2 mph 66 % 0 in
00:57 58.5 °F 46.8 °F 30.2 in Calm   2 mph 65 % 0 in
01:02 58.5 °F 46.8 °F 30.2 in NNW 1 mph 1 mph 65 % 0 in
01:07 58.5 °F 46.8 °F 30.2 in Calm   1 mph 65 % 0 in
01:12 58.5 °F 46.8 °F 30.2 in Calm   1 mph 65 % 0 in
01:17 58.3 °F 46.9 °F 30.2 in Calm   1 mph 66 % 0 in
01:22 57.9 °F 46.6 °F 30.2 in Calm   2 mph 66 % 0 in
01:27 57.6 °F 46.8 °F 30.2 in Calm   2 mph 67 % 0 in
01:32 57.4 °F 46.9 °F 30.2 in Calm   1 mph 68 % 0 in
01:37 57.4 °F 46.9 °F 30.2 in North 1 mph 2 mph 68 % 0 in
01:42 57.4 °F 46.9 °F 30.2 in NW 1 mph 2 mph 68 % 0 in
01:47 57 °F 46.6 °F 30.2 in NW 1 mph 1 mph 68 % 0 in
01:52 57 °F 46.9 °F 30.2 in Calm   1 mph 69 % 0 in
02:02 57.6 °F 47.1 °F 30.2 in Calm   1 mph 68 % 0 in
02:07 57.4 °F 46.9 °F 30.2 in NW 1 mph 1 mph 68 % 0 in
02:12 57 °F 46.9 °F 30.2 in Calm   1 mph 69 % 0 in
02:17 57.2 °F 47.1 °F 30.2 in NW 1 mph 1 mph 69 % 0 in
02:22 57.6 °F 47.1 °F 30.2 in Calm   1 mph 68 % 0 in
02:32 57.6 °F 47.1 °F 30.2 in NW 1 mph 1 mph 68 % 0 in
02:37 57.4 °F 47.3 °F 30.2 in NNW 1 mph 2 mph 69 % 0 in
02:42 57.2 °F 47.1 °F 30.2 in NNW 1 mph 2 mph 69 % 0 in
02:47 56.8 °F 47.1 °F 30.2 in NNW 1 mph 2 mph 70 % 0 in
02:52 56.8 °F 47.1 °F 30.2 in NNW 1 mph 2 mph 70 % 0 in
02:57 57 °F 47.3 °F 30.2 in NNW 1 mph 2 mph 70 % 0 in
03:02 57 °F 47.3 °F 30.2 in NNW 1 mph 2 mph 70 % 0 in
03:07 57 °F 47.3 °F 30.2 in NNW 1 mph 2 mph 70 % 0 in
03:12 56.8 °F 47.1 °F 30.2 in Calm   2 mph 70 % 0 in
03:17 56.7 °F 47.3 °F 30.2 in Calm   2 mph 71 % 0 in
03:22 56.5 °F 47.1 °F 30.2 in NNW 1 mph 2 mph 71 % 0 in
03:27 56.5 °F 47.5 °F 30.2 in NNW 1 mph 2 mph 72 % 0 in
03:32 56.5 °F 47.5 °F 30.2 in NNW 1 mph 2 mph 72 % 0 in
03:37 56.5 °F 47.1 °F 30.2 in NW 1 mph 3 mph 71 % 0 in
03:42 56.5 °F 47.1 °F 30.2 in NNW 2 mph 4 mph 71 % 0 in
03:52 56.7 °F 47.3 °F 30.2 in NW 1 mph 4 mph 71 % 0 in
03:57 56.5 °F 47.1 °F 30.2 in Calm   3 mph 71 % 0 in
04:02 56.5 °F 47.5 °F 30.2 in Calm   3 mph 72 % 0 in
04:07 56.5 °F 47.1 °F 30.2 in Calm   2 mph 71 % 0 in
04:12 56.5 °F 47.1 °F 30.2 in NNW 2 mph 2 mph 71 % 0 in
04:17 56.5 °F 47.1 °F 30.2 in NNW 1 mph 3 mph 71 % 0 in
04:22 56.5 °F 47.1 °F 30.1 in NNW 1 mph 3 mph 71 % 0 in
04:27 56.1 °F 46.8 °F 30.1 in NNW 1 mph 3 mph 71 % 0 in
04:32 56.1 °F 47.3 °F 30.1 in NNW 1 mph 3 mph 72 % 0 in
04:37 56.1 °F 47.3 °F 30.1 in Calm   3 mph 72 % 0 in
04:42 56.1 °F 46.8 °F 30.1 in NNW 1 mph 3 mph 71 % 0 in
04:47 56.1 °F 47.3 °F 30.1 in North 1 mph 2 mph 72 % 0 in
04:52 56.3 °F 46.9 °F 30.1 in North 1 mph 2 mph 71 % 0 in
04:57 55.9 °F 47.1 °F 30.1 in North 1 mph 2 mph 72 % 0 in
05:02 55.6 °F 46.8 °F 30.1 in North 1 mph 2 mph 72 % 0 in
05:07 55.6 °F 47.1 °F 30.1 in NNW 1 mph 2 mph 73 % 0 in
05:17 55.8 °F 47.3 °F 30.1 in NW 1 mph 2 mph 73 % 0 in
05:22 55.8 °F 47.3 °F 30.1 in Calm   3 mph 73 % 0 in
05:27 55.8 °F 46.9 °F 30.1 in Calm   3 mph 72 % 0 in
05:32 55.8 °F 46.9 °F 30.1 in NNW 1 mph 3 mph 72 % 0 in
05:37 55.8 °F 47.3 °F 30.1 in NNW 1 mph 2 mph 73 % 0 in
05:42 55.6 °F 47.1 °F 30.1 in NNW 1 mph 2 mph 73 % 0 in
05:47 55.6 °F 47.1 °F 30.1 in NNW 1 mph 2 mph 73 % 0 in
05:52 55.8 °F 47.3 °F 30.1 in Calm   3 mph 73 % 0 in
05:57 55.6 °F 47.1 °F 30.1 in Calm   3 mph 73 % 0 in
06:02 55.4 °F 46.9 °F 30.1 in Calm   3 mph 73 % 0 in
06:12 54.5 °F 46.4 °F 30.1 in Calm   1 mph 74 % 0 in
06:17 54.3 °F 46.6 °F 30.1 in WNW 1 mph 1 mph 75 % 0 in
06:22 54 °F 46.6 °F 30.1 in WNW 2 mph 2 mph 76 % 0 in
06:27 53.8 °F 46.8 °F 30.1 in Calm   1 mph 77 % 0 in
06:32 53.8 °F 46.8 °F 30.1 in WNW 1 mph 2 mph 77 % 0 in
06:37 53.4 °F 46.8 °F 30.1 in WNW 1 mph 2 mph 78 % 0 in
06:42 53.4 °F 46.4 °F 30.1 in WNW 1 mph 2 mph 77 % 0 in
06:47 53.4 °F 46.4 °F 30.1 in Calm   2 mph 77 % 0 in
06:52 53.2 °F 46.6 °F 30.1 in WNW 1 mph 3 mph 78 % 0 in
07:02 54.1 °F 47.1 °F 30.1 in Calm   3 mph 77 % 0 in
07:12 55.4 °F 47.3 °F 30.1 in Calm   3 mph 74 % 0 in
07:17 55.6 °F 47.5 °F 30.1 in Calm   3 mph 74 % 0 in
07:22 55.9 °F 47.1 °F 30.1 in Calm   3 mph 72 % 0 in
07:27 55.9 °F 47.5 °F 30.1 in Calm   2 mph 73 % 0 in
07:32 56.3 °F 47.8 °F 30.1 in Calm   2 mph 73 % 0 in
07:42 57.7 °F 48.4 °F 30.1 in Calm   2 mph 71 % 0 in
07:47 58.5 °F 49.1 °F 30.1 in Calm   2 mph 71 % 0 in
07:52 58.8 °F 48.7 °F 30.1 in Calm   2 mph 69 % 0 in
07:57 59.4 °F 49.1 °F 30.1 in North 2 mph 2 mph 69 % 0 in
08:02 59.7 °F 49.1 °F 30.1 in NNW 4 mph 4 mph 68 % 0 in
08:07 60.1 °F 49.1 °F 30.1 in North 3 mph 4 mph 67 % 0 in
08:12 60.3 °F 49.3 °F 30.1 in North 3 mph 4 mph 67 % 0 in
08:17 60.6 °F 49.3 °F 30.1 in North 2 mph 4 mph 66 % 0 in
08:22 61.2 °F 49.6 °F 30.1 in NE 3 mph 5 mph 66 % 0 in
08:32 62.1 °F 50.2 °F 30.1 in North 3 mph 5 mph 65 % 0 in
08:37 62.6 °F 50.2 °F 30.1 in North 4 mph 5 mph 64 % 0 in
08:42 63.1 °F 50.4 °F 30.1 in North 4 mph 5 mph 63 % 0 in
08:47 63.3 °F 49.3 °F 30.1 in NNE 2 mph 6 mph 60 % 0 in
08:52 64 °F 49.8 °F 30.1 in NNE 3 mph 6 mph 60 % 0 in
09:07 64.9 °F 49.3 °F 30.1 in NE 2 mph 6 mph 57 % 0 in
09:12 64.9 °F 49.3 °F 30.1 in NNW 2 mph 6 mph 57 % 0 in
09:17 65.1 °F 49.1 °F 30.1 in ENE 1 mph 6 mph 56 % 0 in
09:22 65.8 °F 49.6 °F 30.1 in Calm   6 mph 56 % 0 in
09:27 65.8 °F 48.7 °F 30.1 in ENE 5 mph 6 mph 54 % 0 in
09:32 66 °F 49.5 °F 30.1 in NE 2 mph 6 mph 55 % 0 in
09:42 66.4 °F 48.7 °F 30.1 in ENE 4 mph 6 mph 53 % 0 in
09:47 66.4 °F 48.7 °F 30.1 in East 4 mph 7 mph 53 % 0 in
09:52 66.6 °F 49.5 °F 30.1 in NE 2 mph 7 mph 54 % 0 in
09:57 66.9 °F 49.3 °F 30.1 in ENE 3 mph 5 mph 53 % 0 in
10:02 66.9 °F 49.3 °F 30.1 in NE 3 mph 5 mph 53 % 0 in
10:07 67.3 °F 49.6 °F 30.1 in ENE 2 mph 5 mph 53 % 0 in
10:12 67.6 °F 49.8 °F 30.1 in Calm   6 mph 53 % 0 in
10:17 68.4 °F 49.5 °F 30.1 in NE 4 mph 6 mph 51 % 0 in
10:22 68.2 °F 49.3 °F 30.1 in Calm   6 mph 51 % 0 in
10:32 68.7 °F 49.8 °F 30.1 in Calm   5 mph 51 % 0 in
10:42 69.6 °F 50.2 °F 30.1 in Calm   5 mph 50 % 0 in
10:47 69.6 °F 50.7 °F 30.1 in NNE 2 mph 6 mph 51 % 0 in
10:52 70.2 °F 50.2 °F 30.1 in NNE 5 mph 6 mph 49 % 0 in
10:57 70 °F 50.5 °F 30.1 in NNE 1 mph 6 mph 50 % 0 in
11:02 70.9 °F 51.3 °F 30.1 in ENE 3 mph 6 mph 50 % 0 in
11:07 70.9 °F 50.7 °F 30.1 in East 3 mph 6 mph 49 % 0 in
11:12 70.9 °F 50.2 °F 30.1 in ENE 2 mph 5 mph 48 % 0 in
11:17 71.1 °F 50.4 °F 30.1 in ENE 3 mph 5 mph 48 % 0 in
11:22 71.1 °F 50.4 °F 30.1 in ENE 4 mph 6 mph 48 % 0 in
11:32 71.8 °F 50.5 °F 30.1 in ENE 2 mph 8 mph 47 % 0 in
11:37 72 °F 49.5 °F 30.1 in NE 3 mph 8 mph 45 % 0 in
11:42 72.1 °F 49.1 °F 30.1 in NNE 7 mph 8 mph 44 % 0 in
11:52 72.5 °F 49.3 °F 30.1 in East 3 mph 9 mph 44 % 0 in
11:57 72.5 °F 50.5 °F 30.1 in ENE 4 mph 9 mph 46 % 0 in
12:02 73 °F 51.1 °F 30.1 in ENE 4 mph 9 mph 46 % 0 in
12:07 72.9 °F 49.6 °F 30.1 in ENE 7 mph 11 mph 44 % 0 in
12:12 72.5 °F 48.7 °F 30.1 in NE 7 mph 11 mph 43 % 0 in
12:17 72.7 °F 49.5 °F 30.1 in SSE 2 mph 11 mph 44 % 0 in
12:22 73 °F 49.8 °F 30.1 in East 5 mph 11 mph 44 % 0 in
12:32 73.6 °F 50.4 °F 30.1 in ENE 2 mph 9 mph 44 % 0 in
12:37 73.8 °F 49.8 °F 30.1 in Calm   9 mph 43 % 0 in
12:42 73.6 °F 50.4 °F 30.1 in ENE 2 mph 8 mph 44 % 0 in
12:47 73.9 °F 49.5 °F 30.1 in North 7 mph 8 mph 42 % 0 in
12:52 73.9 °F 49.5 °F 30.1 in ENE 4 mph 8 mph 42 % 0 in
12:57 74.5 °F 48.6 °F 30.1 in ENE 4 mph 10 mph 40 % 0 in
13:02 74.7 °F 48.7 °F 30.1 in East 1 mph 10 mph 40 % 0 in
13:12 75 °F 49.1 °F 30.1 in NE 3 mph 12 mph 40 % 0 in
13:17 74.8 °F 48.9 °F 30.1 in ESE 1 mph 12 mph 40 % 0 in
13:22 74.7 °F 49.5 °F 30 in NNE 4 mph 12 mph 41 % 0 in
13:27 75.4 °F 49.5 °F 30 in NE 3 mph 12 mph 40 % 0 in
13:32 75.6 °F 50.2 °F 30 in ENE 5 mph 12 mph 41 % 0 in
13:37 75.7 °F 51.1 °F 30 in ENE 3 mph 12 mph 42 % 0 in
13:42 75.7 °F 50.4 °F 30 in NE 4 mph 12 mph 41 % 0 in
13:47 75.9 °F 50.5 °F 30 in East 5 mph 12 mph 41 % 0 in
13:52 76.5 °F 50.4 °F 30 in North 6 mph 12 mph 40 % 0 in
13:57 76.3 °F 51.4 °F 30 in NE 3 mph 12 mph 42 % 0 in
14:02 76.5 °F 51.6 °F 30 in East 4 mph 11 mph 42 % 0 in
14:07 76.5 °F 50.4 °F 30 in Calm   14 mph 40 % 0 in
14:12 76.3 °F 50.2 °F 30 in NE 4 mph 14 mph 40 % 0 in
14:17 77 °F 50.2 °F 30 in SE 4 mph 14 mph 39 % 0 in
14:22 77 °F 47.3 °F 30 in NE 4 mph 11 mph 35 % 0 in
14:27 76.8 °F 49.3 °F 30 in ESE 2 mph 12 mph 38 % 0 in
14:32 77.2 °F 49.6 °F 30 in ENE 6 mph 12 mph 38 % 0 in
14:37 77.2 °F 48.9 °F 30 in NE 6 mph 11 mph 37 % 0 in
14:42 76.8 °F 49.3 °F 30 in NE 1 mph 9 mph 38 % 0 in
14:47 77.2 °F 48.9 °F 30 in ESE 1 mph 9 mph 37 % 0 in
14:52 77.2 °F 49.6 °F 30 in NE 9 mph 9 mph 38 % 0 in
14:57 77.2 °F 48.9 °F 30 in NE 4 mph 13 mph 37 % 0 in
15:02 77.5 °F 49.3 °F 30 in NE 7 mph 13 mph 37 % 0 in
15:07 77.4 °F 49.8 °F 30 in East 5 mph 13 mph 38 % 0 in
15:12 77.5 °F 49.3 °F 30 in East 4 mph 12 mph 37 % 0 in
15:17 77.7 °F 50 °F 30 in ENE 5 mph 12 mph 38 % 0 in
15:22 78.3 °F 49.1 °F 30 in ENE 7 mph 9 mph 36 % 0 in
15:32 78.4 °F 50.7 °F 30 in NE 4 mph 10 mph 38 % 0 in
15:37 78.4 °F 48.6 °F 30 in ENE 6 mph 13 mph 35 % 0 in
15:42 78.4 °F 48.6 °F 30 in East 2 mph 13 mph 35 % 0 in
15:47 78.8 °F 49.6 °F 30 in ESE 5 mph 13 mph 36 % 0 in
15:52 78.6 °F 48.7 °F 30 in North 4 mph 12 mph 35 % 0 in
15:57 78.6 °F 47.8 °F 30 in ENE 4 mph 12 mph 34 % 0 in
16:02 79.3 °F 49.3 °F 30 in ESE 2 mph 9 mph 35 % 0 in
16:07 79.9 °F 48.2 °F 30 in East 1 mph 9 mph 33 % 0 in
16:12 80.1 °F 48.4 °F 30 in SSE 2 mph 8 mph 33 % 0 in
16:17 80.2 °F 50.2 °F 30 in Calm   7 mph 35 % 0 in
16:22 80.8 °F 48.2 °F 30 in East 1 mph 7 mph 32 % 0 in
16:27 81 °F 49.1 °F 30 in ENE 3 mph 5 mph 33 % 0 in
16:32 81.1 °F 49.3 °F 30 in NE 5 mph 6 mph 33 % 0 in
16:37 80.6 °F 48 °F 30 in ENE 3 mph 12 mph 32 % 0 in
16:42 80.1 °F 49.1 °F 30 in ENE 5 mph 13 mph 34 % 0 in
16:47 80.4 °F 49.5 °F 30 in ESE 2 mph 13 mph 34 % 0 in
16:52 81.1 °F 50.2 °F 30 in NE 2 mph 11 mph 34 % 0 in
16:57 80.2 °F 49.3 °F 30 in NE 5 mph 9 mph 34 % 0 in
17:02 80.1 °F 49.1 °F 30 in ENE 5 mph 7 mph 34 % 0 in
17:07 80.6 °F 49.6 °F 30 in NE 4 mph 7 mph 34 % 0 in
17:12 80.4 °F 51.1 °F 30 in Calm   7 mph 36 % 0 in
17:17 80.8 °F 50.5 °F 30 in NE 3 mph 7 mph 35 % 0 in
17:22 80.4 °F 50.2 °F 30 in ENE 6 mph 6 mph 35 % 0 in
17:27 80.8 °F 50.5 °F 30 in NE 8 mph 9 mph 35 % 0 in
17:32 80.2 °F 50.2 °F 30 in ENE 8 mph 9 mph 35 % 0 in
17:37 79.9 °F 49.8 °F 30 in ENE 3 mph 11 mph 35 % 0 in
17:42 79.9 °F 49.8 °F 30 in NE 3 mph 11 mph 35 % 0 in
17:52 79.9 °F 51.3 °F 29.9 in SSW 1 mph 5 mph 37 % 0 in
17:57 80.1 °F 50 °F 29.9 in ENE 1 mph 5 mph 35 % 0 in
18:02 80.6 °F 51.3 °F 29.9 in Calm   5 mph 36 % 0 in
18:07 81.3 °F 51.1 °F 29.9 in East 3 mph 5 mph 35 % 0 in
18:12 81 °F 51.4 °F 29.9 in NNE 3 mph 6 mph 36 % 0 in
18:17 81 °F 50.7 °F 29.9 in NNE 2 mph 9 mph 35 % 0 in
18:22 80.8 °F 50.5 °F 29.9 in NNE 1 mph 9 mph 35 % 0 in
18:27 80.2 °F 50.9 °F 29.9 in NNW 3 mph 9 mph 36 % 0 in
18:32 80.1 °F 50.7 °F 29.9 in North 4 mph 7 mph 36 % 0 in
18:37 79.9 °F 51.3 °F 29.9 in NNE 8 mph 8 mph 37 % 0 in
18:42 79.3 °F 51.4 °F 29.9 in North 3 mph 8 mph 38 % 0 in
18:52 79 °F 51.3 °F 29.9 in East 2 mph 8 mph 38 % 0 in
18:57 79 °F 52 °F 29.9 in Calm   6 mph 39 % 0 in
19:02 79 °F 52 °F 29.9 in ENE 1 mph 6 mph 39 % 0 in
19:07 79 °F 52 °F 29.9 in NE 3 mph 5 mph 39 % 0 in
19:12 78.6 °F 51.6 °F 29.9 in NE 3 mph 5 mph 39 % 0 in
19:17 78.4 °F 51.4 °F 29.9 in NE 1 mph 4 mph 39 % 0 in
19:22 78.4 °F 51.4 °F 29.9 in NE 1 mph 4 mph 39 % 0 in
19:27 78.3 °F 51.3 °F 29.9 in NE 3 mph 4 mph 39 % 0 in
19:32 78.1 °F 51.8 °F 29.9 in NE 4 mph 5 mph 40 % 0 in
19:37 77.9 °F 52.3 °F 29.9 in NE 5 mph 5 mph 41 % 0 in
19:42 77.5 °F 52.7 °F 29.9 in NE 3 mph 6 mph 42 % 0 in
19:52 77 °F 52.9 °F 29.9 in NE 5 mph 6 mph 43 % 0 in
19:57 76.6 °F 52.5 °F 29.9 in Calm   8 mph 43 % 0 in
20:02 76.3 °F 53.4 °F 29.9 in NE 6 mph 8 mph 45 % 0 in
20:07 75.9 °F 52.5 °F 29.9 in NE 2 mph 8 mph 44 % 0 in
20:12 75.7 °F 52.3 °F 29.9 in Calm   7 mph 44 % 0 in
20:22 75.6 °F 52.2 °F 29.9 in NE 4 mph 5 mph 44 % 0 in
20:27 74.8 °F 52.2 °F 29.9 in NE 4 mph 6 mph 45 % 0 in
20:32 74.5 °F 52.3 °F 29.9 in ENE 4 mph 6 mph 46 % 0 in
20:37 74.5 °F 52.3 °F 29.9 in NE 2 mph 8 mph 46 % 0 in
20:42 74.5 °F 52.3 °F 29.9 in North 4 mph 8 mph 46 % 0 in
20:47 74.3 °F 52.2 °F 29.9 in NNW 1 mph 7 mph 46 % 0 in
20:52 74.1 °F 52 °F 29.9 in ENE 3 mph 6 mph 46 % 0 in
20:57 73.9 °F 51.8 °F 29.9 in NNW 2 mph 6 mph 46 % 0 in
21:02 73.9 °F 51.8 °F 29.9 in NNW 2 mph 5 mph 46 % 0 in
21:07 73.9 °F 51.8 °F 29.9 in North 5 mph 5 mph 46 % 0 in
21:12 73.9 °F 51.8 °F 29.9 in NW 3 mph 6 mph 46 % 0 in
21:17 73.8 °F 52.3 °F 29.9 in NNE 2 mph 6 mph 47 % 0 in
21:22 73.4 °F 52.5 °F 29.9 in North 5 mph 6 mph 48 % 0 in
21:27 73.2 °F 52.3 °F 29.9 in North 3 mph 8 mph 48 % 0 in
21:32 73 °F 52.2 °F 29.9 in ENE 2 mph 8 mph 48 % 0 in
21:37 73 °F 52.2 °F 29.9 in NE 7 mph 8 mph 48 % 0 in
21:42 72.9 °F 52.5 °F 29.9 in North 7 mph 10 mph 49 % 0 in
21:47 72.7 °F 52.3 °F 29.9 in NE 8 mph 10 mph 49 % 0 in
21:52 72.5 °F 52.3 °F 29.9 in NE 5 mph 10 mph 49 % 0 in
21:57 72.1 °F 52.5 °F 29.9 in ENE 8 mph 10 mph 50 % 0 in
22:02 71.8 °F 54.7 °F 29.9 in ESE 6 mph 13 mph 55 % 0 in
22:07 70.9 °F 55.4 °F 29.9 in ENE 6 mph 13 mph 58 % 0 in
22:12 70.2 °F 55.6 °F 29.9 in ESE 1 mph 13 mph 60 % 0 in
22:17 69.8 °F 55.2 °F 29.9 in East 3 mph 10 mph 60 % 0 in
22:22 69.4 °F 55.9 °F 29.9 in East 1 mph 7 mph 62 % 0 in
22:27 69.4 °F 55.4 °F 29.9 in Calm   7 mph 61 % 0 in
22:37 68.5 °F 56.7 °F 29.9 in East 3 mph 7 mph 66 % 0 in
22:42 68.2 °F 57.2 °F 29.9 in ENE 3 mph 5 mph 68 % 0 in
22:47 68 °F 57 °F 29.9 in NE 2 mph 4 mph 68 % 0 in
22:52 67.6 °F 57 °F 29.9 in NNE 2 mph 5 mph 69 % 0 in
22:57 67.6 °F 57 °F 29.9 in NNE 3 mph 5 mph 69 % 0 in
23:02 67.6 °F 57.6 °F 29.9 in Calm   5 mph 70 % 0 in
23:07 67.5 °F 57 °F 29.9 in NE 1 mph 4 mph 69 % 0 in
23:12 67.5 °F 57.4 °F 29.9 in Calm   4 mph 70 % 0 in
23:17 67.3 °F 57.2 °F 29.9 in Calm   2 mph 70 % 0 in
23:22 67.1 °F 57.4 °F 29.9 in Calm   1 mph 71 % 0 in
23:27 66.9 °F 57.6 °F 29.9 in Calm   1 mph 72 % 0 in
23:32 66.6 °F 58.1 °F 29.9 in Calm   1 mph 74 % 0 in
23:37 66.2 °F 58.1 °F 29.9 in Calm     75 % 0 in
23:42 66 °F 58.3 °F 29.9 in Calm     76 % 0 in
23:52 65.3 °F 58.3 °F 29.9 in Calm   1 mph 78 % 0 in
23:57 64.9 °F 57.6 °F 29.9 in WNW 2 mph 2 mph 77 % 0 in
Meteo18
Compliments of Weather Underground - 4 mb

Script developed by  Jim McMurry - jmcmurry@mwt.net Adapted for the template by  Wim van der Kuil - Leuven-Template.eu

You find our weather info also at:

European Weather Network

Weather Underground

Equipment we use:

Weather-station
Davis Vue

Weather-program
Meteohub

Weather-server
Raspberry PI 2 B+

Provider
1 and 1

Davis Vue

Meteohub

Raspberry PI 2 B+

1 and 1